Location: Brno
(49.2000°N, 16.6330°E)
Time: 18:44:40
(UTC+01:00)

Cosmos 1603 - Visible Passes

Search period start: 28 March 2015 00:00
Search period end: 07 April 2015 01:00
Orbit: 831 x 860 km, 71.0° (Epoch: 27 March)

Date Brightness Start Highest point End Pass type
(mag) Time Alt. Az. Time Alt. Az. Time Alt. Az.
28 Mar 5.5 19:10:21 10° N 19:14:03 18° NE 19:17:52 10° ENE visible
28 Mar 3.7 20:53:42 10° NNW 20:59:24 66° ENE 21:00:00 61° E visible
28 Mar 5.6 22:38:36 10° NW 22:41:54 22° W 22:41:54 22° W visible
29 Mar 5.5 19:56:31 10° N 20:00:09 17° NE 20:03:56 10° ENE visible
29 Mar 3.8 21:39:50 10° NNW 21:45:31 64° ENE 21:46:42 52° ESE visible
29 Mar 5.4 23:24:42 10° NW 23:28:37 24° W 23:28:37 24° W visible
30 Mar 3.8 21:25:59 10° NNW 21:31:39 62° ENE 21:33:27 42° ESE visible
30 Mar 5.3 23:10:48 10° NW 23:15:22 25° WSW 23:15:22 25° WSW visible
31 Mar 3.8 21:12:07 10° NNW 21:17:48 61° ENE 21:20:14 34° SE visible
31 Mar 5.2 22:56:54 10° NW 23:01:35 26° WSW 23:02:09 25° WSW visible
01 Apr 3.9 20:58:16 10° NNW 21:03:56 59° ENE 21:07:04 27° SE visible
01 Apr 5.2 22:43:01 10° NW 22:47:45 27° WSW 22:48:59 24° SW visible
02 Apr 3.9 20:44:24 10° NNW 20:50:04 58° NE 20:53:57 20° SE visible
02 Apr 5.3 22:29:07 10° NW 22:33:54 27° WSW 22:35:52 22° SW visible
03 Apr 3.9 20:30:33 10° NNW 20:36:11 57° NE 20:40:53 15° SE visible
03 Apr 5.3 22:15:13 10° NW 22:20:03 28° WSW 22:22:49 19° SW visible
04 Apr 4.0 20:16:42 10° NNW 20:22:20 55° NE 20:27:53 10° SE visible
04 Apr 5.3 22:01:20 10° NW 22:06:13 29° WSW 22:09:49 15° SSW visible
05 Apr 4.0 20:02:50 10° NNW 20:08:28 54° NE 20:14:06 10° SE visible
05 Apr 5.3 21:47:26 10° NW 21:52:22 30° WSW 21:56:53 11° SSW visible
06 Apr 5.3 21:33:33 10° NW 21:38:32 30° WSW 21:43:25 10° SSW visible
